Location: Peterborough
(44.3091°N, 78.3197°W)
Time: 03:15:59
(UTC-04:00)

S-56A Canister/Altair - Pass Details

Date: 27 March 2023
Orbit: 639 x 2492 km, 38.9° (Epoch: 08 June)

Event Time Altitude Azimuth Distance (km) Brightness Sun altitude
Rises 03:37:46 0° 281° (W) 6,170 - -33.8°
Reaches altitude 10° 03:44:50 10° 260° (W) 5,096 - -32.9°
Maximum altitude 03:50:55 14° 235° (SW) 4,598 - -32.1°
Drops below altitude 10° 03:56:36 10° 209° (SSW) 4,669 - -31.4°
Sets 04:02:34 0° 187° (S) 5,307 - -30.6°
